Miscellaneous Local Product
Issued by NWS Hastings, NE

Home | Current Version | Previous Version | Graphics & Text | Print | Product List | Glossary On
Versions: 1 2 3 4 5 6 7 8 9 10 11 12 13 14 15 16 17 18 19 20 21 22 23 24 25 26 27 28 29 30 31 32 33 34 35 36 37 38 39 40 41 42 43 44 45 46 47 48 49 50
000
AXUS43 KGID 171902
MISGRI

GID CWA HOURLY WEATHER ROUNDUP
NATIONAL WEATHER SERVICE HASTINGS NE
200 PM CDT FRI APR 17 2015

NOTE: "FAIR" INDICATES FEW OR NO CLOUDS BELOW 12,000 FEET WITH NO
SIGNIFICANT WEATHER AND/OR OBSTRUCTIONS TO VISIBILITY.

...SOUTH CENTRAL NEBRASKA...

CITY           SKY/WX    TMP DP  RH WIND       PRES   REMARKS
GRAND ISLAND   CLOUDY    66  58  75 E12       30.06F
HASTINGS       CLOUDY    64  58  80 E8        30.04F
KEARNEY        CLOUDY    61  55  82 E9        30.06F
ORD            HVY RAIN  58  54  86 S7        30.08S VSB 3/4
YORK           CLOUDY    68  59  73 SE9       30.06F
AURORA         CLOUDY    64  61  87 E10       30.06F
LEXINGTON      CLOUDY    60  58  94 E9        30.06S FOG
HOLDREGE       LGT RAIN  59  57  93 E12       30.05F
HEBRON         CLOUDY    67  55  66 E9        30.04F

...NEBRASKA PANHANDLE...

CITY           SKY/WX    TMP DP  RH WIND       PRES   REMARKS
CHADRON        LGT RAIN  46  42  86 NE12      30.16F FOG
ALLIANCE       LGT RAIN  46  44  93 NE21      30.08S FOG
SCOTTSBLUFF    LGT RAIN  47  47 100 NE20      30.06S
SIDNEY         CLOUDY    50  48  93 E17G28    30.03S FOG

...WESTERN AND NORTH CENTRAL NEBRASKA...

CITY           SKY/WX    TMP DP  RH WIND       PRES   REMARKS
VALENTINE      LGT RAIN  55  47  74 NE9       30.13F
AINSWORTH      RAIN      55  51  86 NE10      30.13F
ONEILL         LGT RAIN  62  52  69 E5        30.12F
BROKEN BOW     CLOUDY    58  55  90 E14       30.07S FOG
IMPERIAL       PTSUNNY   58  53  84 E14G25    30.01F
NORTH PLATTE   CLOUDY    55  53  93 E8        30.07S
MCCOOK         CLOUDY    60  53  77 E14       30.03F

...EASTERN NEBRASKA...

CITY           SKY/WX    TMP DP  RH WIND       PRES   REMARKS
NORFOLK        NOT AVBL
SO SIOUX CITY  PTSUNNY   73  49  42 SE6       30.06F
TEKAMAH        PTSUNNY   77  50  38 VRB7      30.04F
COLUMBUS       CLOUDY    70  52  52 SE7       30.08F
ALBION         CLOUDY    67  51  57 SE9       30.08S
OMAHA EPPLEY   PTSUNNY   75  50  41 E7G16     30.04F
OFFUTT AFB     PTSUNNY   74  54  48 E6        30.03F
MILLARD        PTSUNNY   74  54  48 SE9       30.04F
LINCOLN        CLOUDY    71  54  54 SE9       30.05F
NEBRASKA CITY  PTSUNNY   73  49  41 SE10      30.04F
BEATRICE       CLOUDY    68  57  66 E12       30.02F
FALLS CITY     CLOUDY    75  54  47 E9        30.01F

...NORTHERN KANSAS...

CITY           SKY/WX    TMP DP  RH WIND       PRES   REMARKS
GOODLAND       CLOUDY    59  51  75 SE15G21   30.00S
HILL CITY      PTSUNNY   66  52  60 SE15G24   30.00F
NORTON         PTCLDY    66  52  59 E13       30.00F
PHILLIPSBURG   CLOUDY    68  55  64 E14G21    30.01F
SMITH CENTER   MOSUNNY   66  57  72 E12G18    30.02F
BELOIT         MOSUNNY   70  57  64 NE10      30.00F
HAYS           PTSUNNY   68  50  52 E16G23    30.01S
RUSSELL        MOSUNNY   69  55  60 E12       29.99F
CONCORDIA      CLOUDY    69  57  65 E10       30.01F
SALINA         MOSUNNY   71  59  65 VRB6      30.00F
TOPEKA         CLOUDY    70  59  68 E9        29.99F



USA.gov is the U.S. government's official web portal to all federal, state and local government web resources and services.